Millington, TN

4:04 AM CDT on April 25, 2018 (GMT -0500)
Millington Municipal

Weather History for KNQA - February, 2013

Change the Weather History Date:

Friday, February 22, 2013

  Actual Average Record
Temperature  
Mean Temperature 42 °F -  
Max Temperature 48 °F 53 °F 78 °F (2017)
Min Temperature 35 °F 37 °F 27 °F (2002)
Degree Days  
Heating Degree Days 24    
Moisture  
Dew Point 37 °F    
Average Humidity 91    
Maximum Humidity 100    
Minimum Humidity 71    
Precipitation  
Precipitation 0.00 in - - ()
Sea Level Pressure  
Sea Level Pressure 30.00 in    
Wind  
Wind Speed 5 mph (WSW)    
Max Wind Speed 8 mph    
Max Gust Speed -    
Visibility 5 miles    
Events Fog    
Averages and records for this station are not official NWS values.
T = Trace of Precipitation, MM = Missing Value Source: NWS Daily Summary

Daily Weather History Graph

Daily Weather History Graph

Search for Another Location

Airport or City:

Astronomy

Feb. 22, 2013 Rise Set
Actual Time 6:37 AM CST 5:48 PM CST
Civil Twilight 6:11 AM CST 6:14 PM CST
Nautical Twilight 5:42 AM CST 6:44 PM CST
Astronomical Twilight 5:12 AM CST 7:13 PM CST
Moon 3:04 PM CST (2/22) 4:18 AM CST (2/22)
Length of Visible Light 12h 02m
Length of Day
11h 11m
Waxing Gibbous, 90% of the Moon is Illuminated
Feb 22
Waxing Gibbous
Feb 25
Full
Mar 4
Last Quarter
Mar 11
New
Mar 19
First Quarter

Hourly Weather History & Observations

Time (CST) Temp. Windchill Dew Point Humidity Pressure Visibility Wind Dir Wind Speed Gust Speed Precip Events Conditions
12:24 AM 39.2 °F 35.0 °F 39.2 °F 100% 29.88 in 1.0 mi West 5.8 mph - N/A   Overcast
12:55 AM 39.2 °F 35.9 °F 39.2 °F 100% 29.90 in 0.5 mi SW 4.6 mph - N/A Fog Fog
1:55 AM 37.4 °F 33.8 °F 37.4 °F 100% 29.91 in 0.5 mi SW 4.6 mph - N/A Fog Fog
2:15 AM 37.4 °F 34.9 °F 37.4 °F 100% 29.91 in 0.5 mi SSW 3.5 mph - N/A   Overcast
2:55 AM 37.4 °F 34.9 °F 37.4 °F 100% 29.92 in 0.5 mi South 3.5 mph - N/A   Overcast
3:15 AM 37.4 °F 32.8 °F 37.4 °F 100% 29.93 in 0.8 mi South 5.8 mph - N/A   Overcast
3:35 AM 37.4 °F 34.9 °F 37.4 °F 100% 29.93 in 1.0 mi South 3.5 mph - N/A   Overcast
3:55 AM 37.4 °F 32.1 °F 37.4 °F 100% 29.94 in 0.2 mi SW 6.9 mph - N/A   Overcast
4:15 AM 37.4 °F 33.8 °F 37.4 °F 100% 29.95 in 0.2 mi SW 4.6 mph - N/A   Overcast
4:35 AM 37.4 °F - 37.4 °F 100% 29.96 in 0.2 mi Calm Calm - N/A   Overcast
4:55 AM 37.4 °F 33.8 °F 37.4 °F 100% 29.96 in 0.2 mi West 4.6 mph - N/A   Overcast
5:55 AM 37.4 °F - 35.6 °F 93% 29.97 in 0.5 mi Calm Calm - N/A Fog Fog
6:55 AM 37.4 °F 34.9 °F 37.4 °F 100% 30.00 in 0.5 mi West 3.5 mph - N/A Fog Fog
7:55 AM 35.6 °F 30.7 °F 35.6 °F 100% 30.04 in 0.5 mi SW 5.8 mph - N/A Fog Fog
8:55 AM 37.4 °F 32.1 °F 35.6 °F 93% 30.07 in 3.0 mi WSW 6.9 mph - N/A   Overcast
9:55 AM 37.4 °F 32.1 °F 37.4 °F 100% 30.07 in 10.0 mi WSW 6.9 mph - N/A   Overcast
11:55 AM 41.0 °F 37.1 °F 37.4 °F 87% 30.07 in 10.0 mi SW 5.8 mph - N/A   Overcast
1:55 PM 48.2 °F - 39.2 °F 71% 30.03 in 10.0 mi SW 5.8 mph - N/A   Mostly Cloudy
2:55 PM 48.2 °F - 39.2 °F 71% 30.01 in 10.0 mi Variable 3.5 mph - N/A   Mostly Cloudy
3:55 PM 48.2 °F - 39.2 °F 71% 30.00 in 10.0 mi Calm Calm - N/A   Mostly Cloudy
4:55 PM 46.4 °F 44.3 °F 39.2 °F 76% 30.01 in 10.0 mi NW 4.6 mph - N/A   Mostly Cloudy
5:55 PM 44.6 °F 42.2 °F 39.2 °F 81% 30.03 in 10.0 mi WNW 4.6 mph - N/A   Mostly Cloudy
6:55 PM 42.8 °F 40.1 °F 37.4 °F 81% 30.05 in 10.0 mi NW 4.6 mph - N/A   Mostly Cloudy
7:55 PM 41.0 °F 38.0 °F 37.4 °F 87% 30.06 in 10.0 mi NW 4.6 mph - N/A   Mostly Cloudy
8:55 PM 39.2 °F 35.0 °F 37.4 °F 93% 30.07 in 10.0 mi NW 5.8 mph - N/A   Mostly Cloudy
9:55 PM 39.2 °F 34.2 °F 35.6 °F 87% 30.09 in 10.0 mi NW 6.9 mph - N/A   Mostly Cloudy
10:55 PM 37.4 °F 31.4 °F 32.0 °F 81% 30.07 in 10.0 mi NNW 8.1 mph - N/A   Mostly Cloudy
11:55 PM 35.6 °F 31.7 °F 30.2 °F 81% 30.08 in 10.0 mi NNW 4.6 mph - N/A   Mostly Cloudy